Location: Round Knob
(37.2473°N, 88.7376°W)
Time: 19:39:44
(UTC+00:00)

X-37B - Pass Details

Date: 27 September 2021
Orbit: 385 x 389 km, 45.0° (Epoch: 17 October)

Event Time Altitude Azimuth Distance (km) Brightness Sun altitude
Exits shadow 11:03:16 - 308° (NW) 1,599 3.3 -9.6°
Reaches altitude 10° 11:03:51 10° 314° (NW) 1,413 3.0 -9.5°
Maximum altitude 11:06:16 20° 4° (N) 975 2.7 -9.0°
Drops below altitude 10° 11:08:42 10° 54° (NE) 1,414 4.4 -8.5°
Sets 11:11:09 0° 72° (ENE) 2,269 6.4 -8.0°
